Location: Balsareny
(41.8670°N, 1.8830°E)
Time: 01:19:24
(UTC+02:00)

X-37B - Pass Details

Date: 21 June 2021
Orbit: 383 x 392 km, 45.0° (Epoch: 01 July)

Event Time Altitude Azimuth Distance (km) Brightness Sun altitude
Exits shadow 04:37:48 - 288° (WNW) 1,738 3.7 -14.5°
Reaches altitude 10° 04:38:36 10° 288° (WNW) 1,404 3.2 -14.4°
Maximum altitude 04:41:46 79° 202° (SSW) 394 0.4 -14.1°
Drops below altitude 10° 04:44:55 10° 115° (ESE) 1,404 3.6 -13.7°
Sets 04:46:59 0° 114° (ESE) 2,257 4.7 -13.5°
